Weather observations for the past three days for
Hawthorne, Hawthorne Municipal Airport
Imperial (Metric)
Date Time (pdt) Wind (mph) Vis. (mi.) Weather Sky Cond. Temperature (ºF) Relative Humidity Wind Chill (°F) Heat Index (°F) Pressure Precipitation (in)
Air Dwpt 6 hour altimeter (in) sea level (mb) 1 hr 3 hr 6 hr
Max. Min.
12 12:53 NW 8 7.00 Fair CLR 71.1 62.1 73% 29.88 1011.5
12 11:53 Vrbl 3 8.00 Fair CLR 73 62.1 69% 29.89 1012.0
12 10:53 W 8 8.00 Mostly Cloudy BKN018 71.1 62.1 72 66 73% 29.9 1012.4
12 09:53 Calm 9.00 Overcast OVC014 70 62.1 76% 29.92 1013.0
12 08:53 NW 5 6.00 Overcast with Haze OVC011 68 63 84% 29.93 1013.3
12 07:53 W 6 6.00 Overcast with Haze SCT007 OVC011 66.9 62.1 84% 29.92 1012.9
12 06:53 E 3 7.00 Overcast OVC010 66.9 61 81% 29.9 1012.4
12 05:53 E 6 7.00 Overcast OVC009 66.9 62.1 84% 29.89 1012.2
12 04:53 E 6 6.00 Overcast with Haze OVC009 66.9 62.1 68 64.9 84% 29.89 1012.1
12 03:53 SE 3 5.00 Fog/Mist OVC005 66 62.1 87% 29.88 1011.5
12 02:53 Calm 4.00 Fog/Mist OVC004 64.9 63 93% 29.87 1011.2
12 01:53 Calm 5.00 Fog/Mist OVC004 64.9 63 93% 29.86 1011.0
12 00:53 W 5 6.00 Fog/Mist OVC005 64.9 62.1 90% 29.88 1011.5
11 23:53 SW 5 6.00 Fog/Mist OVC006 66 62.1 87% 29.88 1011.6
11 22:53 W 5 5.00 Fog/Mist OVC004 64.9 62.1 73.9 64.9 90% 29.87 1011.5
11 21:53 Vrbl 3 6.00 Fog/Mist OVC006 66 63 90% 29.87 1011.5
11 20:53 Vrbl 7 9.00 Overcast OVC006 66.9 62.1 84% 29.86 1011.1
11 19:53 W 5 8.00 Overcast OVC009 66.9 62.1 84% 29.84 1010.2
11 18:53 W 10 G 17 8.00 Mostly Cloudy BKN009 70 63 79% 29.83 1010.0
11 17:53 W 13 10.00 Fair CLR 73 63 71% 29.83 1009.9
11 16:53 W 15 10.00 Fair CLR 73.9 63 80.1 71.1 69% 29.83 1010.0
11 15:53 W 13 10.00 Fair CLR 75.9 63 64% 78 29.84 1010.4
11 14:53 W 7 10.00 Fair CLR 77 63 62% 79 29.86 1011.1
11 13:53 W 10 9.00 Fair CLR 80.1 63 56% 81 29.88 1011.7
11 12:53 SW 6 9.00 Fair CLR 77 63 62% 79 29.91 1012.6
11 11:53 Vrbl 3 6.00 Fair with Haze CLR 75 63 66% 77 29.91 1012.8
11 10:53 Vrbl 3 5.00 Mostly Cloudy with Haze BKN014 71.1 63 71.1 64 76% 29.92 1013.2
11 09:53 S 3 5.00 Overcast with Haze OVC013 70 62.1 76% 29.93 1013.5
11 08:53 SE 3 5.00 Overcast with Haze OVC009 68 62.1 81% 29.92 1013.0
11 07:53 Calm 7.00 Overcast OVC006 66 62.1 87% 29.9 1012.5
11 06:53 SW 6 7.00 Fair CLR 64.9 61 87% 29.88 1011.8
11 05:53 Calm 9.00 Partly Cloudy SCT007 64 60.1 87% 29.85 1010.8
11 04:53 NW 3 10.00 Fair CLR 64.9 61 68 64.9 87% 29.83 1010.1
11 03:53 Calm 10.00 Fair CLR 64.9 61 87% 29.84 1010.2
11 02:53 W 3 10.00 Fair CLR 66 61 84% 29.84 1010.4
11 01:53 W 3 10.00 Fair CLR 66 60.1 81% 29.86 1010.9
11 00:53 Calm 10.00 Fair CLR 66 60.1 81% 29.86 1011.2
10 23:53 Calm 10.00 Fair CLR 66.9 59 76% 29.87 1011.5
10 22:53 W 7 10.00 Fair CLR 68 60.1 77 68 76% 29.87 1011.5
10 21:53 SW 5 10.00 Fair CLR 68 60.1 76% 29.87 1011.3
10 20:53 SW 6 10.00 Fair CLR 69.1 61 76% 29.85 1010.7
10 19:53 W 8 10.00 Fair CLR 71.1 61 71% 29.83 1010.0
10 18:53 W 9 10.00 Fair CLR 73 62.1 69% 29.83 1009.9
10 17:53 W 7 10.00 Fair CLR 75.9 63 64% 78 29.83 1009.9
10 16:53 W 9 10.00 Fair CLR 77 63 79 75 62% 79 29.84 1010.3
10 15:53 W 10 10.00 Fair CLR 77 62.1 60% 79 29.86 1010.8
10 14:53 W 12 10.00 Fair CLR 75.9 62.1 62% 78 29.87 1011.4
10 13:53 W 12 10.00 Fair CLR 75.9 62.1 62% 78 29.88 1011.7
10 12:53 W 10 G 17 10.00 Fair CLR 75.9 62.1 62% 78 29.89 1011.9
10 11:53 W 7 10.00 Fair CLR 77 62.1 60% 79 29.9 1012.2
10 10:53 W 5 10.00 Fair CLR 78.1 62.1 78.1 64 58% 80 29.89 1011.9
10 09:53 Calm 10.00 Fair CLR 73.9 62.1 67% 29.88 1011.8
10 08:53 Calm 9.00 Fair CLR 70 61 73% 29.87 1011.3
10 07:53 Vrbl 3 7.00 Fair CLR 66 61 84% 29.86 1011.0
10 06:53 SW 3 7.00 Fair CLR 64 60.1 87% 29.85 1010.5
10 05:53 W 5 9.00 Fair CLR 64 60.1 87% 29.82 1009.8
10 04:53 Calm 10.00 Fair CLR 64.9 60.1 66 64 84% 29.83 1009.9
10 03:53 Calm 10.00 Fair CLR 64.9 60.1 84% 29.82 1009.7
10 02:53 Calm 9.00 Fair CLR 64.9 60.1 84% 29.82 1009.7
10 01:53 Calm 10.00 Fair CLR 64.9 60.1 84% 29.82 1009.8
10 00:53 NW 3 10.00 Fair CLR 64.9 60.1 84% 29.83 1009.9
09 23:53 Vrbl 3 10.00 Fair CLR 66 61 84% 29.83 1010.1
09 22:53 W 5 9.00 Mostly Cloudy BKN007 64.9 60.1 73 64 84% 29.84 1010.2
09 21:53 NW 3 7.00 Overcast OVC006 64.9 61 87% 29.83 1010.1
09 20:53 NW 7 9.00 Overcast OVC006 64.9 61 87% 29.82 1009.7
09 19:53 W 6 10.00 Fair CLR 66.9 61 81% 29.81 1009.3
09 18:53 NW 7 10.00 Fair CLR 69.1 61 76% 29.81 1009.2
09 17:53 NW 8 10.00 Fair CLR 71.1 61 71% 29.81 1009.2
09 16:53 W 12 10.00 Fair CLR 72 61 78.1 72 68% 29.81 1009.3
09 15:53 NW 10 9.00 Fair CLR 73.9 62.1 67% 29.82 1009.6
Date Time (pdt) Wind (mph) Vis. (mi.) Weather Sky Cond. Air Dwpt Max. Min. Relative Humidity Wind Chill (°F) Heat Index (°F) altimeter (in) sea level (mb) 1 hr 3 hr 6 hr
6 hour
Temperature (ºF) Pressure Precipitation (in)